QPF
0.00 0.00 0.00 0.00 0.00 0.00 0.00 0.00 0.00 0.00 0.00 0.00 0.00 0.00 0.00 0.00 0.01 0.02 0.04 0.02 0.02 0.02 0.01 0.01 0.03 0.04 0.05 0.05 0.04 0.04 0.03 0.02 0.02 0.03 0.02 0.01 0.02 0.03 0.04 0.04 0.05 0.05 0.07 0.05 0.04 0.03 0.03 0.03 0.03
0.00 0.00 0.00 0.00 0.00 0.00 0.00 0.00 0.00 0.00 0.00 0.00 0.00 0.00 0.00 0.00 0.00 0.01 0.01 0.01 0.02 0.02 0.01 0.01 0.03 0.04 0.05 0.05 0.05 0.04 0.03 0.02 0.02 0.03 0.03 0.02 0.02 0.03 0.04 0.06 0.05 0.05 0.05 0.04 0.03 0.04 0.03 0.03 0.03
0.00 0.00 0.00 0.00 0.00 0.00 0.00 0.00 0.00 0.00 0.00 0.00 0.00 0.00 0.00 0.00 0.00 0.00 0.01 0.01 0.02 0.02 0.02 0.02 0.03 0.04 0.05 0.05 0.05 0.05 0.03 0.03 0.03 0.02 0.02 0.02 0.02 0.02 0.03 0.05 0.06 0.05 0.04 0.04 0.03 0.02 0.02 0.02 0.02
0.00 0.00 0.00 0.00 0.00 0.00 0.00 0.00 0.00 0.00 0.00 0.00 0.00 0.00 0.00 0.00 0.00 0.00 0.01 0.01 0.02 0.02 0.03 0.03 0.03 0.04 0.04 0.05 0.06 0.06 0.05 0.04 0.04 0.03 0.02 0.02 0.02 0.03 0.03 0.04 0.05 0.04 0.03 0.03 0.03 0.02 0.02 0.02 0.01
0.00 0.00 0.00 0.00 0.00 0.00 0.00 0.00 0.00 0.00 0.00 0.00 0.00 0.00 0.00 0.00 0.00 0.00 0.01 0.01 0.02 0.02 0.02 0.03 0.04 0.04 0.05 0.05 0.07 0.06 0.05 0.06 0.05 0.04 0.04 0.04 0.04 0.03 0.03 0.02 0.03 0.04 0.04 0.04 0.03 0.02 0.02 0.02 0.02
0.00 0.00 0.00 0.00 0.00 0.00 0.00 0.00 0.00 0.00 0.00 0.00 0.00 0.00 0.00 0.00 0.00 0.00 0.01 0.01 0.01 0.02 0.02 0.02 0.03 0.04 0.05 0.07 0.08 0.07 0.06 0.05 0.05 0.06 0.05 0.04 0.04 0.04 0.04 0.03 0.03 0.03 0.04 0.03 0.03 0.02 0.02 0.02 0.02
0.00 0.00 0.00 0.00 0.00 0.00 0.00 0.00 0.00 0.00 0.00 0.00 0.00 0.00 0.00 0.00 0.01 0.01 0.01 0.01 0.01 0.01 0.02 0.02 0.03 0.04 0.07 0.09 0.10 0.08 0.06 0.04 0.04 0.05 0.04 0.03 0.03 0.04 0.04 0.05 0.04 0.04 0.04 0.03 0.03 0.03 0.02 0.03 0.02
0.00 0.00 0.00 0.00 0.00 0.00 0.00 0.00 0.00 0.00 0.00 0.00 0.00 0.00 0.00 0.00 0.01 0.01 0.01 0.02 0.02 0.02 0.02 0.03 0.04 0.06 0.08 0.10 0.13 0.09 0.06 0.04 0.04 0.03 0.03 0.02 0.03 0.03 0.04 0.04 0.05 0.04 0.04 0.03 0.03 0.03 0.02 0.03 0.02
0.00 0.00 0.00 0.00 0.00 0.00 0.00 0.00 0.00 0.00 0.00 0.00 0.00 0.00 0.00 0.00 0.01 0.02 0.02 0.02 0.03 0.04 0.02 0.03 0.05 0.09 0.09 0.10 0.10 0.09 0.06 0.06 0.05 0.04 0.03 0.03 0.03 0.04 0.03 0.03 0.03 0.03 0.03 0.03 0.03 0.03 0.02 0.02 0.02
0.00 0.00 0.00 0.00 0.00 0.00 0.00 0.00 0.00 0.00 0.00 0.00 0.00 0.00 0.00 0.00 0.01 0.02 0.02 0.02 0.03 0.04 0.03 0.02 0.03 0.07 0.10 0.09 0.09 0.08 0.05 0.04 0.04 0.04 0.03 0.03 0.02 0.03 0.04 0.04 0.04 0.04 0.03 0.03 0.03 0.03 0.03 0.02 0.02
0.00 0.00 0.00 0.00 0.00 0.00 0.00 0.00 0.00 0.00 0.00 0.00 0.00 0.00 0.01 0.01 0.01 0.02 0.02 0.03 0.03 0.03 0.03 0.02 0.04 0.07 0.09 0.09 0.08 0.08 0.05 0.03 0.03 0.03 0.04 0.04 0.03 0.04 0.04 0.04 0.05 0.05 0.04 0.03 0.02 0.02 0.03 0.03 0.02
0.00 0.00 0.00 0.00 0.00 0.00 0.00 0.00 0.00 0.00 0.00 0.00 0.00 0.00 0.00 0.01 0.01 0.02 0.03 0.03 0.03 0.02 0.02 0.02 0.03 0.06 0.07 0.08 0.07 0.06 0.05 0.03 0.02 0.02 0.04 0.04 0.04 0.05 0.04 0.03 0.03 0.05 0.04 0.03 0.03 0.02 0.03 0.03 0.02
0.00 0.00 0.00 0.00 0.00 0.00 0.00 0.00 0.00 0.00 0.00 0.00 0.00 0.00 0.00 0.01 0.01 0.01 0.02 0.02 0.02 0.02 0.01 0.02 0.02 0.03 0.06 0.08 0.06 0.06 0.05 0.03 0.03 0.03 0.03 0.03 0.04 0.04 0.05 0.05 0.04 0.04 0.05 0.05 0.04 0.03 0.04 0.04 0.03
0.00 0.00 0.00 0.00 0.00 0.00 0.00 0.00 0.00 0.00 0.00 0.00 0.00 0.00 0.00 0.01 0.01 0.01 0.01 0.02 0.02 0.02 0.01 0.01 0.02 0.02 0.04 0.06 0.06 0.05 0.05 0.05 0.03 0.04 0.03 0.03 0.03 0.03 0.03 0.05 0.05 0.06 0.07 0.07 0.07 0.06 0.05 0.06 0.06
0.00 0.00 0.00 0.00 0.00 0.00 0.00 0.00 0.00 0.00 0.00 0.00 0.00 0.00 0.00 0.01 0.01 0.01 0.01 0.01 0.02 0.02 0.03 0.02 0.02 0.02 0.03 0.04 0.05 0.04 0.05 0.06 0.05 0.04 0.04 0.03 0.03 0.03 0.03 0.04 0.05 0.05 0.07 0.11 0.12 0.11 0.09 0.07 0.07
0.00 0.00 0.00 0.00 0.00 0.00 0.00 0.00 0.00 0.01 0.01 0.01 0.01 0.00 0.01 0.01 0.01 0.01 0.01 0.01 0.02 0.03 0.04 0.04 0.03 0.02 0.03 0.03 0.05 0.05 0.05 0.06 0.06 0.05 0.04 0.03 0.03 0.03 0.03 0.05 0.04 0.04 0.05 0.07 0.08 0.08 0.07 0.06 0.07
0.01 0.01 0.00 0.00 0.00 0.00 0.00 0.00 0.01 0.01 0.02 0.01 0.01 0.01 0.01 0.01 0.01 0.01 0.01 0.01 0.02 0.03 0.04 0.05 0.04 0.03 0.03 0.03 0.05 0.06 0.06 0.06 0.06 0.06 0.05 0.04 0.03 0.03 0.04 0.05 0.04 0.04 0.06 0.06 0.07 0.07 0.06 0.05 0.05
0.01 0.00 0.00 0.00 0.00 0.01 0.01 0.01 0.01 0.01 0.02 0.02 0.02 0.01 0.02 0.02 0.02 0.02 0.02 0.02 0.02 0.03 0.05 0.06 0.06 0.04 0.03 0.03 0.05 0.06 0.07 0.07 0.08 0.08 0.06 0.05 0.04 0.04 0.05 0.05 0.05 0.06 0.07 0.08 0.08 0.08 0.07 0.06 0.06
0.01 0.01 0.00 0.00 0.00 0.01 0.01 0.01 0.01 0.01 0.01 0.02 0.02 0.02 0.02 0.02 0.02 0.02 0.03 0.03 0.03 0.04 0.04 0.06 0.06 0.05 0.04 0.04 0.05 0.06 0.06 0.07 0.08 0.09 0.09 0.08 0.05 0.04 0.05 0.06 0.06 0.07 0.09 0.09 0.09 0.09 0.08 0.07 0.06
0.02 0.02 0.01 0.00 0.00 0.00 0.01 0.00 0.00 0.01 0.02 0.02 0.02 0.01 0.02 0.02 0.03 0.03 0.03 0.03 0.03 0.03 0.04 0.04 0.05 0.05 0.05 0.05 0.06 0.06 0.05 0.06 0.09 0.07 0.08 0.11 0.10 0.07 0.05 0.07 0.08 0.07 0.10 0.11 0.11 0.11 0.10 0.07 0.06
0.01 0.01 0.01 0.01 0.01 0.00 0.01 0.01 0.01 0.01 0.02 0.02 0.02 0.02 0.02 0.03 0.03 0.03 0.03 0.03 0.04 0.04 0.04 0.04 0.04 0.05 0.06 0.05 0.08 0.09 0.08 0.07 0.10 0.09 0.08 0.09 0.12 0.12 0.09 0.08 0.10 0.10 0.12 0.13 0.12 0.10 0.10 0.09 0.07
0.00 0.01 0.01 0.01 0.02 0.02 0.01 0.02 0.01 0.01 0.02 0.03 0.03 0.03 0.04 0.03 0.03 0.03 0.03 0.04 0.05 0.05 0.05 0.04 0.05 0.06 0.05 0.06 0.09 0.12 0.11 0.08 0.08 0.10 0.08 0.07 0.07 0.10 0.10 0.08 0.11 0.14 0.15 0.15 0.16 0.12 0.10 0.08 0.08
0.00 0.00 0.01 0.01 0.02 0.02 0.02 0.02 0.02 0.01 0.02 0.03 0.03 0.03 0.04 0.04 0.03 0.02 0.02 0.03 0.04 0.05 0.05 0.06 0.05 0.07 0.08 0.09 0.11 0.13 0.12 0.07 0.07 0.09 0.07 0.06 0.04 0.06 0.09 0.09 0.09 0.13 0.16 0.16 0.16 0.14 0.11 0.10 0.08
0.01 0.00 0.00 0.01 0.02 0.02 0.01 0.02 0.02 0.02 0.03 0.04 0.03 0.03 0.03 0.05 0.03 0.02 0.02 0.04 0.05 0.05 0.05 0.06 0.06 0.06 0.08 0.08 0.08 0.09 0.10 0.07 0.06 0.08 0.09 0.07 0.05 0.04 0.05 0.09 0.10 0.11 0.15 0.16 0.16 0.14 0.10 0.09 0.09
0.01 0.01 0.01 0.02 0.03 0.02 0.01 0.02 0.03 0.03 0.03 0.04 0.04 0.03 0.04 0.05 0.03 0.02 0.03 0.05 0.07 0.06 0.05 0.06 0.06 0.06 0.06 0.06 0.06 0.05 0.06 0.05 0.05 0.06 0.09 0.08 0.06 0.04 0.04 0.05 0.08 0.11 0.13 0.16 0.15 0.14 0.12 0.08 0.07
0.01 0.01 0.02 0.02 0.01 0.01 0.01 0.02 0.03 0.02 0.03 0.04 0.04 0.03 0.03 0.03 0.03 0.03 0.03 0.05 0.06 0.06 0.06 0.07 0.08 0.08 0.07 0.06 0.05 0.04 0.03 0.04 0.04 0.04 0.07 0.08 0.07 0.05 0.05 0.04 0.05 0.07 0.11 0.15 0.16 0.14 0.12 0.10 0.08
0.01 0.01 0.02 0.02 0.01 0.02 0.02 0.03 0.02 0.01 0.02 0.04 0.04 0.02 0.03 0.02 0.03 0.03 0.04 0.04 0.05 0.04 0.05 0.07 0.08 0.09 0.09 0.08 0.06 0.04 0.03 0.02 0.03 0.04 0.05 0.07 0.06 0.04 0.04 0.04 0.04 0.05 0.08 0.12 0.14 0.15 0.13 0.10 0.08
0.01 0.02 0.02 0.02 0.02 0.02 0.03 0.03 0.03 0.02 0.02 0.04 0.05 0.02 0.02 0.02 0.03 0.04 0.04 0.04 0.04 0.04 0.04 0.06 0.06 0.06 0.07 0.07 0.06 0.04 0.03 0.02 0.02 0.03 0.04 0.05 0.05 0.04 0.03 0.04 0.04 0.05 0.07 0.10 0.12 0.12 0.12 0.10 0.08
0.00 0.02 0.02 0.02 0.02 0.03 0.03 0.03 0.03 0.03 0.03 0.04 0.04 0.03 0.03 0.03 0.03 0.03 0.04 0.05 0.04 0.04 0.04 0.05 0.06 0.05 0.07 0.06 0.05 0.04 0.03 0.02 0.02 0.02 0.03 0.04 0.05 0.04 0.04 0.03 0.03 0.04 0.07 0.10 0.12 0.12 0.10 0.08 0.08
0.00 0.01 0.02 0.02 0.02 0.02 0.03 0.02 0.02 0.03 0.03 0.04 0.04 0.02 0.02 0.03 0.04 0.03 0.04 0.06 0.04 0.03 0.04 0.06 0.07 0.05 0.06 0.07 0.06 0.04 0.03 0.03 0.02 0.02 0.02 0.04 0.05 0.05 0.04 0.04 0.04 0.04 0.06 0.10 0.11 0.12 0.10 0.08 0.07
MSLP
1013.39 1013.75 1014.37 1015.16 1016.02 1016.86 1017.56 1018.05 1018.32 1018.38 1018.30 1018.16 1018.07 1018.08 1018.23 1018.51 1018.89 1019.28 1019.60 1019.81 1019.85 1019.73 1019.46 1019.11 1018.71 1018.34 1018.01 1017.74 1017.54 1017.39 1017.29 1017.21 1017.16 1017.15 1017.16 1017.22 1017.32 1017.43 1017.55 1017.65 1017.73 1017.76 1017.77 1017.74 1017.72 1017.70 1017.69 1017.70 1017.71
1013.82 1014.32 1015.02 1015.84 1016.66 1017.38 1017.93 1018.25 1018.34 1018.25 1018.07 1017.89 1017.80 1017.86 1018.08 1018.44 1018.88 1019.31 1019.66 1019.87 1019.91 1019.78 1019.51 1019.16 1018.79 1018.43 1018.12 1017.88 1017.70 1017.56 1017.46 1017.39 1017.35 1017.34 1017.37 1017.44 1017.55 1017.68 1017.82 1017.93 1018.00 1018.04 1018.04 1018.01 1017.97 1017.94 1017.92 1017.90 1017.90
1014.32 1014.92 1015.66 1016.44 1017.17 1017.74 1018.10 1018.23 1018.17 1017.96 1017.73 1017.56 1017.52 1017.67 1017.99 1018.44 1018.95 1019.43 1019.80 1020.00 1020.02 1019.88 1019.61 1019.26 1018.91 1018.58 1018.30 1018.09 1017.92 1017.80 1017.71 1017.64 1017.59 1017.58 1017.61 1017.68 1017.78 1017.90 1018.03 1018.13 1018.20 1018.24 1018.24 1018.21 1018.17 1018.14 1018.11 1018.08 1018.06
1014.83 1015.48 1016.21 1016.92 1017.50 1017.90 1018.08 1018.04 1017.83 1017.56 1017.31 1017.19 1017.25 1017.51 1017.94 1018.49 1019.07 1019.58 1019.95 1020.14 1020.15 1019.99 1019.72 1019.39 1019.06 1018.77 1018.53 1018.34 1018.21 1018.09 1018.01 1017.93 1017.87 1017.84 1017.85 1017.90 1017.98 1018.08 1018.19 1018.28 1018.34 1018.38 1018.38 1018.37 1018.34 1018.32 1018.29 1018.28 1018.26
1015.28 1015.95 1016.63 1017.22 1017.66 1017.88 1017.89 1017.70 1017.41 1017.10 1016.88 1016.84 1017.01 1017.39 1017.93 1018.56 1019.18 1019.71 1020.07 1020.25 1020.23 1020.07 1019.81 1019.51 1019.22 1018.97 1018.77 1018.62 1018.51 1018.41 1018.32 1018.23 1018.15 1018.10 1018.08 1018.10 1018.15 1018.23 1018.32 1018.40 1018.46 1018.49 1018.51 1018.51 1018.51 1018.50 1018.51 1018.50 1018.49
1015.65 1016.29 1016.90 1017.38 1017.66 1017.73 1017.59 1017.30 1016.96 1016.66 1016.50 1016.55 1016.82 1017.30 1017.93 1018.61 1019.25 1019.77 1020.11 1020.26 1020.24 1020.08 1019.84 1019.58 1019.34 1019.14 1018.99 1018.88 1018.79 1018.70 1018.60 1018.50 1018.40 1018.33 1018.29 1018.28 1018.31 1018.37 1018.44 1018.51 1018.57 1018.61 1018.65 1018.67 1018.70 1018.72 1018.74 1018.77 1018.77
1015.92 1016.52 1017.05 1017.41 1017.57 1017.51 1017.28 1016.94 1016.58 1016.32 1016.23 1016.36 1016.71 1017.26 1017.92 1018.61 1019.23 1019.72 1020.03 1020.16 1020.14 1020.00 1019.80 1019.59 1019.41 1019.27 1019.17 1019.09 1019.01 1018.93 1018.82 1018.71 1018.60 1018.52 1018.46 1018.45 1018.47 1018.52 1018.58 1018.65 1018.71 1018.76 1018.81 1018.85 1018.90 1018.95 1019.00 1019.04 1019.07
1016.12 1016.68 1017.13 1017.40 1017.47 1017.33 1017.04 1016.68 1016.34 1016.12 1016.09 1016.28 1016.68 1017.24 1017.89 1018.55 1019.13 1019.57 1019.84 1019.96 1019.94 1019.83 1019.69 1019.55 1019.44 1019.35 1019.29 1019.24 1019.18 1019.09 1018.99 1018.87 1018.76 1018.67 1018.62 1018.61 1018.63 1018.68 1018.74 1018.81 1018.87 1018.93 1018.98 1019.04 1019.10 1019.17 1019.23 1019.29 1019.34
1016.28 1016.80 1017.19 1017.40 1017.41 1017.24 1016.93 1016.58 1016.27 1016.08 1016.08 1016.29 1016.69 1017.22 1017.82 1018.41 1018.92 1019.30 1019.55 1019.66 1019.67 1019.62 1019.55 1019.48 1019.43 1019.41 1019.38 1019.35 1019.29 1019.21 1019.11 1018.99 1018.89 1018.81 1018.77 1018.77 1018.81 1018.86 1018.93 1019.00 1019.05 1019.11 1019.16 1019.21 1019.27 1019.35 1019.42 1019.49 1019.55
1016.43 1016.93 1017.29 1017.46 1017.45 1017.26 1016.96 1016.62 1016.33 1016.17 1016.17 1016.35 1016.70 1017.16 1017.67 1018.18 1018.61 1018.95 1019.18 1019.32 1019.38 1019.40 1019.41 1019.42 1019.44 1019.46 1019.47 1019.45 1019.40 1019.32 1019.21 1019.11 1019.02 1018.96 1018.94 1018.96 1019.01 1019.07 1019.14 1019.19 1019.24 1019.28 1019.32 1019.36 1019.41 1019.48 1019.55 1019.62 1019.68
1016.61 1017.09 1017.43 1017.59 1017.56 1017.38 1017.09 1016.76 1016.48 1016.30 1016.27 1016.39 1016.65 1017.01 1017.42 1017.84 1018.21 1018.53 1018.77 1018.95 1019.09 1019.21 1019.31 1019.41 1019.49 1019.56 1019.59 1019.57 1019.52 1019.44 1019.34 1019.24 1019.17 1019.14 1019.14 1019.17 1019.23 1019.29 1019.35 1019.39 1019.42 1019.44 1019.46 1019.48 1019.52 1019.57 1019.63 1019.70 1019.76
1016.82 1017.28 1017.60 1017.75 1017.72 1017.54 1017.25 1016.93 1016.62 1016.41 1016.30 1016.33 1016.48 1016.73 1017.04 1017.38 1017.72 1018.04 1018.33 1018.60 1018.84 1019.07 1019.28 1019.46 1019.61 1019.70 1019.75 1019.74 1019.69 1019.61 1019.51 1019.43 1019.38 1019.36 1019.37 1019.41 1019.47 1019.52 1019.56 1019.59 1019.60 1019.59 1019.59 1019.60 1019.62 1019.66 1019.70 1019.76 1019.81
1017.03 1017.47 1017.77 1017.90 1017.86 1017.67 1017.38 1017.03 1016.68 1016.40 1016.20 1016.12 1016.16 1016.30 1016.53 1016.82 1017.15 1017.51 1017.88 1018.26 1018.63 1018.97 1019.29 1019.56 1019.77 1019.90 1019.96 1019.96 1019.91 1019.83 1019.75 1019.68 1019.64 1019.63 1019.65 1019.69 1019.73 1019.76 1019.78 1019.78 1019.77 1019.75 1019.73 1019.73 1019.74 1019.77 1019.81 1019.85 1019.89
1017.25 1017.65 1017.91 1018.01 1017.95 1017.73 1017.41 1017.01 1016.61 1016.24 1015.95 1015.76 1015.69 1015.74 1015.91 1016.18 1016.53 1016.96 1017.44 1017.94 1018.44 1018.91 1019.34 1019.69 1019.95 1020.12 1020.20 1020.21 1020.17 1020.11 1020.04 1019.98 1019.95 1019.94 1019.96 1019.97 1019.99 1020.00 1019.99 1019.96 1019.94 1019.91 1019.90 1019.90 1019.92 1019.95 1019.98 1020.01 1020.04
1017.45 1017.79 1018.00 1018.06 1017.95 1017.70 1017.33 1016.88 1016.41 1015.96 1015.57 1015.29 1015.13 1015.12 1015.25 1015.53 1015.93 1016.44 1017.03 1017.66 1018.28 1018.87 1019.39 1019.81 1020.12 1020.33 1020.43 1020.46 1020.45 1020.40 1020.35 1020.31 1020.29 1020.28 1020.28 1020.27 1020.25 1020.22 1020.19 1020.15 1020.12 1020.10 1020.10 1020.12 1020.16 1020.20 1020.24 1020.26 1020.27
1017.64 1017.91 1018.05 1018.05 1017.89 1017.59 1017.18 1016.68 1016.15 1015.63 1015.17 1014.82 1014.60 1014.54 1014.66 1014.95 1015.41 1016.00 1016.69 1017.42 1018.14 1018.82 1019.41 1019.90 1020.25 1020.49 1020.63 1020.69 1020.70 1020.69 1020.67 1020.65 1020.63 1020.62 1020.59 1020.56 1020.50 1020.44 1020.38 1020.33 1020.30 1020.30 1020.33 1020.38 1020.45 1020.51 1020.56 1020.58 1020.58
1017.83 1018.02 1018.09 1018.02 1017.82 1017.48 1017.04 1016.51 1015.94 1015.38 1014.88 1014.47 1014.22 1014.14 1014.25 1014.56 1015.06 1015.71 1016.46 1017.26 1018.05 1018.78 1019.42 1019.93 1020.32 1020.59 1020.76 1020.86 1020.91 1020.94 1020.95 1020.96 1020.95 1020.93 1020.89 1020.82 1020.73 1020.64 1020.55 1020.49 1020.47 1020.50 1020.56 1020.65 1020.75 1020.84 1020.90 1020.93 1020.92
1018.05 1018.16 1018.16 1018.04 1017.80 1017.45 1016.99 1016.46 1015.89 1015.32 1014.80 1014.38 1014.11 1014.02 1014.13 1014.44 1014.95 1015.62 1016.39 1017.21 1018.02 1018.76 1019.41 1019.94 1020.34 1020.64 1020.84 1020.98 1021.07 1021.14 1021.19 1021.23 1021.23 1021.21 1021.14 1021.05 1020.93 1020.81 1020.71 1020.64 1020.63 1020.68 1020.77 1020.89 1021.02 1021.14 1021.22 1021.25 1021.24
1018.31 1018.35 1018.29 1018.14 1017.90 1017.55 1017.12 1016.62 1016.08 1015.53 1015.04 1014.62 1014.35 1014.25 1014.34 1014.64 1015.13 1015.77 1016.51 1017.29 1018.07 1018.79 1019.42 1019.94 1020.34 1020.65 1020.88 1021.05 1021.19 1021.30 1021.39 1021.45 1021.47 1021.44 1021.36 1021.25 1021.10 1020.96 1020.85 1020.78 1020.78 1020.84 1020.95 1021.09 1021.24 1021.37 1021.46 1021.50 1021.49
1018.61 1018.60 1018.51 1018.35 1018.12 1017.82 1017.44 1017.01 1016.54 1016.05 1015.60 1015.22 1014.96 1014.85 1014.91 1015.16 1015.58 1016.15 1016.82 1017.53 1018.24 1018.90 1019.47 1019.96 1020.35 1020.65 1020.90 1021.10 1021.28 1021.42 1021.54 1021.63 1021.66 1021.63 1021.55 1021.42 1021.26 1021.11 1020.98 1020.91 1020.90 1020.97 1021.08 1021.23 1021.38 1021.52 1021.61 1021.65 1021.65
1018.95 1018.90 1018.80 1018.66 1018.47 1018.23 1017.94 1017.61 1017.23 1016.84 1016.46 1016.13 1015.88 1015.75 1015.77 1015.95 1016.28 1016.74 1017.30 1017.90 1018.50 1019.07 1019.58 1020.01 1020.37 1020.67 1020.93 1021.15 1021.34 1021.52 1021.66 1021.76 1021.81 1021.79 1021.70 1021.57 1021.41 1021.26 1021.13 1021.05 1021.04 1021.09 1021.19 1021.33 1021.47 1021.59 1021.68 1021.72 1021.73
1019.29 1019.22 1019.12 1019.00 1018.88 1018.73 1018.55 1018.34 1018.08 1017.80 1017.50 1017.22 1017.00 1016.85 1016.82 1016.91 1017.13 1017.47 1017.88 1018.35 1018.83 1019.30 1019.73 1020.10 1020.43 1020.71 1020.96 1021.19 1021.40 1021.59 1021.74 1021.86 1021.91 1021.90 1021.83 1021.71 1021.56 1021.41 1021.29 1021.21 1021.18 1021.22 1021.30 1021.42 1021.53 1021.63 1021.71 1021.74 1021.76
1019.62 1019.52 1019.43 1019.35 1019.30 1019.25 1019.19 1019.10 1018.98 1018.81 1018.61 1018.39 1018.19 1018.03 1017.94 1017.93 1018.03 1018.23 1018.51 1018.84 1019.19 1019.55 1019.90 1020.21 1020.50 1020.76 1020.99 1021.22 1021.42 1021.61 1021.77 1021.89 1021.96 1021.97 1021.92 1021.82 1021.70 1021.57 1021.46 1021.38 1021.36 1021.38 1021.43 1021.52 1021.60 1021.68 1021.73 1021.77 1021.78
1019.93 1019.80 1019.71 1019.67 1019.68 1019.72 1019.78 1019.82 1019.83 1019.78 1019.67 1019.52 1019.34 1019.16 1019.02 1018.93 1018.91 1018.97 1019.11 1019.30 1019.54 1019.80 1020.06 1020.32 1020.56 1020.78 1021.00 1021.20 1021.39 1021.57 1021.73 1021.85 1021.93 1021.96 1021.94 1021.89 1021.80 1021.71 1021.63 1021.57 1021.54 1021.55 1021.59 1021.64 1021.70 1021.76 1021.80 1021.83 1021.85
1020.22 1020.06 1019.97 1019.95 1020.02 1020.14 1020.30 1020.46 1020.58 1020.64 1020.62 1020.53 1020.38 1020.19 1020.00 1019.82 1019.70 1019.64 1019.64 1019.72 1019.84 1020.01 1020.19 1020.38 1020.58 1020.77 1020.95 1021.12 1021.29 1021.44 1021.58 1021.70 1021.79 1021.85 1021.87 1021.86 1021.83 1021.78 1021.74 1021.71 1021.70 1021.71 1021.74 1021.78 1021.83 1021.87 1021.91 1021.94 1021.97
1020.55 1020.35 1020.25 1020.24 1020.34 1020.53 1020.77 1021.02 1021.24 1021.39 1021.46 1021.42 1021.30 1021.10 1020.86 1020.62 1020.40 1020.22 1020.11 1020.07 1020.10 1020.17 1020.28 1020.41 1020.55 1020.69 1020.82 1020.95 1021.08 1021.20 1021.32 1021.42 1021.52 1021.60 1021.66 1021.70 1021.73 1021.74 1021.75 1021.77 1021.79 1021.82 1021.85 1021.90 1021.95 1022.00 1022.04 1022.09 1022.14
1020.97 1020.74 1020.62 1020.62 1020.74 1020.96 1021.25 1021.56 1021.85 1022.07 1022.20 1022.21 1022.11 1021.91 1021.63 1021.33 1021.02 1020.75 1020.54 1020.39 1020.32 1020.30 1020.33 1020.39 1020.47 1020.55 1020.63 1020.70 1020.77 1020.85 1020.93 1021.01 1021.11 1021.20 1021.30 1021.39 1021.47 1021.54 1021.61 1021.67 1021.73 1021.80 1021.86 1021.93 1022.01 1022.08 1022.15 1022.22 1022.29
1021.56 1021.31 1021.16 1021.15 1021.26 1021.49 1021.80 1022.14 1022.48 1022.74 1022.91 1022.95 1022.86 1022.65 1022.35 1021.99 1021.61 1021.26 1020.95 1020.70 1020.53 1020.43 1020.38 1020.36 1020.37 1020.38 1020.38 1020.38 1020.39 1020.40 1020.43 1020.48 1020.56 1020.66 1020.77 1020.89 1021.02 1021.15 1021.27 1021.38 1021.49 1021.60 1021.71 1021.82 1021.94 1022.05 1022.17 1022.28 1022.39
1022.37 1022.10 1021.93 1021.90 1021.99 1022.19 1022.49 1022.83 1023.17 1023.45 1023.63 1023.68 1023.60 1023.38 1023.04 1022.64 1022.19 1021.76 1021.36 1021.03 1020.77 1020.58 1020.44 1020.35 1020.27 1020.20 1020.12 1020.04 1019.97 1019.91 1019.87 1019.87 1019.91 1019.98 1020.10 1020.24 1020.39 1020.55 1020.71 1020.87 1021.03 1021.19 1021.35 1021.52 1021.69 1021.86 1022.04 1022.21 1022.37
1023.38 1023.11 1022.93 1022.85 1022.90 1023.06 1023.32 1023.62 1023.93 1024.20 1024.37 1024.41 1024.32 1024.08 1023.71 1023.26 1022.76 1022.26 1021.79 1021.37 1021.03 1020.75 1020.53 1020.36 1020.20 1020.04 1019.88 1019.72 1019.56 1019.41 1019.30 1019.23 1019.21 1019.24 1019.33 1019.45 1019.61 1019.78 1019.97 1020.16 1020.36 1020.56 1020.77 1021.00 1021.23 1021.48 1021.72 1021.96 1022.18
Thickness
5708 5711 5711 5704 5684 5664 5665 5676 5684 5687 5689 5694 5696 5693 5689 5684 5683 5679 5685 5691 5692 5692 5694 5694 5696 5698 5699 5700 5700 5701 5701 5701 5702 5703 5703 5704 5704 5704 5704 5705 5705 5706 5706 5706 5705 5705 5704 5704 5704
5704 5706 5700 5686 5666 5653 5661 5672 5678 5683 5687 5690 5690 5687 5682 5678 5681 5680 5682 5685 5687 5688 5689 5690 5691 5693 5694 5695 5696 5696 5697 5697 5698 5698 5699 5700 5700 5700 5701 5701 5701 5702 5702 5702 5701 5701 5701 5700 5700
5700 5699 5684 5668 5656 5655 5663 5672 5674 5679 5684 5684 5678 5676 5674 5671 5672 5673 5677 5680 5682 5683 5684 5684 5686 5687 5688 5690 5691 5692 5692 5693 5693 5694 5695 5695 5696 5696 5696 5697 5697 5697 5697 5697 5697 5697 5697 5697 5697
5691 5682 5671 5657 5654 5658 5664 5668 5670 5673 5676 5675 5670 5663 5663 5664 5665 5668 5672 5675 5676 5676 5677 5678 5679 5681 5683 5684 5685 5686 5687 5688 5688 5689 5690 5691 5691 5692 5692 5692 5693 5693 5693 5693 5693 5693 5693 5693 5693
5680 5667 5654 5643 5649 5655 5658 5663 5664 5663 5663 5663 5662 5655 5653 5657 5660 5663 5665 5667 5668 5669 5670 5671 5673 5674 5676 5677 5678 5680 5681 5682 5683 5684 5685 5686 5686 5687 5687 5687 5688 5688 5689 5689 5689 5689 5690 5690 5689
5662 5653 5639 5635 5644 5650 5652 5655 5656 5652 5652 5653 5652 5647 5645 5649 5653 5655 5658 5659 5660 5661 5662 5663 5665 5667 5669 5670 5671 5672 5674 5676 5677 5678 5679 5680 5681 5682 5682 5683 5683 5684 5685 5685 5685 5685 5685 5685 5685
5650 5640 5633 5633 5636 5640 5645 5647 5643 5641 5641 5642 5645 5639 5638 5641 5644 5647 5648 5650 5651 5652 5653 5654 5656 5658 5660 5662 5664 5665 5666 5668 5670 5671 5673 5674 5675 5677 5677 5678 5679 5679 5680 5681 5681 5681 5681 5681 5681
5645 5634 5628 5625 5629 5632 5636 5638 5636 5634 5633 5636 5636 5630 5628 5634 5636 5638 5639 5640 5641 5641 5643 5644 5646 5648 5650 5652 5654 5656 5658 5660 5662 5664 5666 5668 5669 5670 5672 5673 5674 5674 5675 5675 5676 5676 5676 5677 5677
5639 5619 5615 5621 5623 5624 5627 5626 5625 5626 5625 5625 5625 5625 5627 5628 5628 5628 5628 5629 5630 5631 5632 5634 5636 5639 5641 5643 5645 5647 5649 5651 5653 5655 5658 5660 5662 5664 5665 5667 5668 5669 5670 5670 5671 5671 5672 5672 5672
5621 5606 5613 5618 5617 5615 5615 5614 5613 5613 5612 5612 5612 5614 5617 5618 5618 5618 5617 5618 5619 5620 5622 5623 5626 5629 5631 5634 5636 5637 5640 5642 5644 5647 5649 5652 5654 5656 5659 5661 5662 5663 5664 5665 5665 5666 5666 5666 5667
5610 5603 5607 5607 5607 5605 5602 5601 5602 5601 5599 5602 5602 5604 5605 5606 5606 5607 5607 5608 5609 5610 5612 5613 5616 5618 5621 5624 5626 5628 5631 5633 5635 5638 5641 5644 5647 5649 5651 5653 5655 5657 5658 5659 5659 5660 5660 5661 5661
5598 5597 5598 5596 5596 5594 5591 5590 5588 5589 5593 5596 5596 5596 5595 5595 5595 5596 5596 5597 5598 5600 5602 5604 5605 5608 5611 5613 5616 5619 5621 5624 5626 5629 5632 5635 5638 5641 5643 5646 5648 5650 5651 5653 5653 5654 5654 5655 5655
5586 5585 5585 5583 5582 5581 5580 5577 5575 5578 5582 5584 5584 5585 5585 5585 5586 5586 5587 5587 5587 5589 5592 5593 5595 5598 5601 5603 5605 5608 5611 5614 5617 5620 5623 5626 5630 5633 5636 5638 5641 5643 5645 5647 5647 5648 5648 5649 5649
5576 5574 5572 5572 5571 5570 5567 5567 5564 5571 5572 5572 5572 5572 5573 5574 5576 5576 5576 5576 5576 5578 5581 5584 5586 5587 5589 5592 5594 5598 5601 5603 5607 5611 5614 5618 5621 5625 5628 5631 5634 5636 5638 5640 5641 5642 5642 5642 5643
5564 5560 5560 5561 5560 5558 5555 5554 5556 5563 5561 5560 5561 5562 5563 5564 5565 5566 5566 5565 5566 5568 5570 5573 5575 5577 5579 5581 5583 5587 5590 5593 5596 5601 5605 5609 5613 5616 5620 5623 5626 5629 5631 5633 5634 5635 5635 5636 5636
5549 5543 5541 5549 5548 5547 5541 5542 5553 5551 5549 5548 5549 5551 5552 5553 5555 5556 5556 5555 5556 5558 5560 5562 5564 5566 5568 5570 5573 5576 5580 5583 5586 5591 5595 5599 5604 5607 5611 5615 5618 5621 5623 5625 5626 5628 5628 5628 5628
5527 5525 5530 5536 5536 5533 5528 5530 5542 5540 5538 5538 5538 5538 5540 5541 5544 5546 5545 5545 5545 5548 5550 5551 5553 5555 5557 5560 5563 5566 5569 5573 5576 5581 5586 5590 5594 5599 5602 5606 5610 5613 5615 5617 5619 5619 5621 5621 5621
5518 5514 5519 5520 5523 5519 5514 5517 5528 5529 5527 5527 5528 5528 5529 5530 5534 5535 5535 5534 5535 5537 5539 5541 5543 5544 5546 5550 5553 5556 5559 5563 5567 5571 5576 5581 5586 5590 5594 5598 5602 5605 5607 5609 5611 5612 5614 5614 5615
5512 5507 5506 5509 5510 5506 5504 5507 5518 5519 5516 5516 5517 5518 5518 5521 5523 5524 5524 5523 5524 5526 5528 5531 5532 5534 5536 5539 5542 5546 5550 5554 5558 5563 5567 5572 5577 5581 5585 5589 5593 5597 5599 5601 5604 5605 5606 5606 5607
5502 5496 5493 5495 5499 5497 5493 5498 5507 5509 5509 5510 5509 5508 5509 5510 5512 5513 5513 5512 5513 5515 5518 5520 5522 5524 5527 5529 5532 5535 5539 5543 5547 5552 5557 5562 5568 5572 5577 5581 5585 5588 5591 5592 5594 5597 5597 5599 5600
5488 5484 5483 5481 5481 5484 5481 5491 5499 5502 5501 5501 5500 5498 5499 5501 5500 5502 5502 5502 5502 5504 5506 5510 5512 5514 5517 5519 5521 5524 5528 5532 5537 5542 5547 5552 5558 5564 5569 5573 5576 5579 5582 5584 5586 5589 5591 5591 5592
5479 5477 5476 5472 5463 5460 5466 5468 5489 5488 5489 5490 5486 5483 5484 5486 5489 5489 5491 5491 5492 5494 5496 5499 5502 5504 5507 5509 5512 5514 5518 5522 5526 5531 5537 5542 5549 5555 5559 5564 5567 5571 5574 5576 5577 5581 5583 5584 5584
5466 5467 5462 5459 5452 5444 5449 5449 5472 5474 5475 5476 5473 5470 5472 5473 5476 5477 5478 5479 5481 5483 5485 5488 5491 5494 5497 5500 5502 5504 5507 5511 5516 5521 5526 5531 5537 5544 5550 5554 5558 5561 5564 5567 5569 5571 5575 5577 5578
5457 5452 5448 5440 5433 5441 5447 5439 5457 5457 5461 5464 5462 5458 5459 5461 5463 5464 5465 5466 5469 5471 5473 5476 5479 5483 5486 5489 5492 5495 5497 5501 5505 5510 5515 5521 5526 5532 5538 5543 5547 5551 5554 5558 5560 5563 5566 5569 5570
5441 5434 5429 5429 5424 5436 5442 5436 5444 5449 5449 5450 5449 5447 5447 5447 5449 5451 5453 5455 5457 5459 5461 5465 5468 5472 5476 5479 5482 5485 5487 5491 5495 5500 5505 5510 5515 5520 5526 5530 5536 5541 5545 5548 5551 5554 5557 5559 5561
5426 5424 5421 5423 5422 5426 5429 5428 5435 5436 5437 5438 5437 5437 5437 5436 5437 5439 5443 5445 5446 5449 5451 5454 5458 5462 5466 5469 5473 5476 5478 5481 5485 5490 5495 5500 5504 5509 5514 5519 5524 5530 5534 5537 5540 5544 5547 5549 5551
5419 5410 5409 5400 5397 5398 5412 5411 5425 5429 5428 5426 5424 5425 5425 5426 5428 5429 5433 5435 5436 5439 5442 5445 5449 5453 5456 5460 5463 5467 5470 5473 5477 5481 5485 5489 5494 5499 5504 5509 5513 5518 5522 5526 5530 5534 5537 5539 5541
5411 5402 5390 5390 5395 5400 5402 5402 5410 5415 5414 5415 5413 5413 5415 5417 5419 5420 5421 5424 5426 5430 5433 5436 5439 5443 5447 5450 5453 5458 5462 5465 5468 5471 5475 5480 5484 5489 5493 5498 5503 5507 5511 5515 5520 5524 5527 5529 5531
5396 5392 5386 5378 5380 5385 5387 5405 5409 5406 5405 5404 5404 5403 5403 5405 5406 5408 5410 5414 5418 5421 5423 5427 5430 5434 5437 5440 5444 5448 5452 5456 5459 5462 5466 5470 5474 5479 5483 5488 5492 5497 5501 5505 5510 5514 5517 5520 5522
5385 5380 5374 5377 5372 5366 5369 5393 5404 5398 5395 5394 5393 5393 5393 5394 5396 5398 5400 5403 5408 5410 5414 5417 5420 5423 5427 5430 5434 5439 5442 5446 5450 5454 5457 5461 5465 5469 5473 5477 5481 5487 5491 5495 5500 5504 5508 5511 5514